Port Angeles, WA

1:36 AM PST on January 18, 2017 (GMT -0800)
Fairchild International

Weather History for KCLM - November, 2011

Change the Weather History Date:

Friday, November 25, 2011

  Actual Average Record
Temperature  
Mean Temperature 42 °F -  
Max Temperature 46 °F 47 °F 57 °F (1954)
Min Temperature 37 °F 36 °F 18 °F (1985)
Degree Days  
Heating Degree Days 24    
Moisture  
Dew Point 32 °F    
Average Humidity 72    
Maximum Humidity 87    
Minimum Humidity 56    
Precipitation  
Precipitation 0.01 in - - ()
Sea Level Pressure  
Sea Level Pressure 30.23 in    
Wind  
Wind Speed 12 mph (SW)    
Max Wind Speed 18 mph    
Max Gust Speed 31 mph    
Visibility 10 miles    
Events Rain    
Averages and records for this station are not official NWS values.
T = Trace of Precipitation, MM = Missing Value Source: NWS Daily Summary

Daily Weather History Graph

Daily Weather History Graph

Search for Another Location

Airport or City:

Trip Planner

Search our weather history database for the weather conditions in past years. The results will help you decide how hot, cold, wet, or windy it might be!

Date:

Astronomy

Nov. 25, 2011 Rise Set
Actual Time 7:35 AM PST 4:26 PM PST
Civil Twilight 7:00 AM PST 5:01 PM PST
Nautical Twilight 6:21 AM PST 5:40 PM PST
Astronomical Twilight 5:44 AM PST 6:17 PM PST
Moon 8:14 AM PST (11/25) 4:54 PM PST (11/25)
Length of Visible Light 10h 01m
Length of Day
8h 51m
New Moon, 0% of the Moon is Illuminated
Nov 25
New Moon
Dec 2
First Quarter
Dec 10
Full
Dec 17
Last Quarter
Dec 24
New

Hourly Weather History & Observations

Time (PST) Temp. Windchill Dew Point Humidity Pressure Visibility Wind Dir Wind Speed Gust Speed Precip Events Conditions
12:53 AM 39.9 °F 32.1 °F 33.1 °F 77% 29.92 in 10.0 mi WNW 13.8 mph - 0.00 in Rain Light Rain
1:31 AM 39.2 °F 31.6 °F 33.8 °F 81% 29.94 in 10.0 mi WSW 12.7 mph - N/A   Mostly Cloudy
1:42 AM 39.2 °F 30.5 °F 33.8 °F 81% 29.95 in 10.0 mi WSW 16.1 mph 21.9 mph 0.01 in   Mostly Cloudy
1:53 AM 39.9 °F 31.8 °F 32.0 °F 73% 29.96 in 10.0 mi West 15.0 mph 27.6 mph 0.01 in Rain Light Rain
2:53 AM 39.9 °F 30.8 °F 32.0 °F 73% 30.03 in 10.0 mi WSW 18.4 mph 31.1 mph 0.00 in   Mostly Cloudy
3:53 AM 39.2 °F 31.6 °F 30.2 °F 70% 30.06 in 10.0 mi WSW 12.7 mph 27.6 mph N/A   Clear
4:53 AM 39.0 °F 31.4 °F 30.9 °F 73% 30.11 in 10.0 mi WSW 12.7 mph - N/A   Clear
5:53 AM 39.9 °F 31.8 °F 28.9 °F 65% 30.16 in 10.0 mi WSW 15.0 mph - N/A   Clear
6:53 AM 39.0 °F 31.4 °F 30.0 °F 70% 30.20 in 10.0 mi WSW 12.7 mph - N/A   Clear
7:53 AM 39.2 °F 31.2 °F 28.4 °F 65% 30.24 in 10.0 mi WSW 13.8 mph - N/A   Clear
8:53 AM 39.9 °F 32.1 °F 30.0 °F 68% 30.30 in 10.0 mi WSW 13.8 mph 21.9 mph N/A   Clear
9:53 AM 41.0 °F 33.1 °F 30.9 °F 67% 30.32 in 10.0 mi WSW 15.0 mph 21.9 mph N/A   Clear
10:53 AM 42.8 °F 35.4 °F 30.2 °F 61% 30.36 in 10.0 mi WSW 15.0 mph 20.7 mph N/A   Clear
11:53 AM 45.0 °F 40.6 °F 30.9 °F 58% 30.38 in 10.0 mi WSW 8.1 mph - N/A   Clear
12:53 PM 46.9 °F - 32.0 °F 56% 30.38 in 10.0 mi East 10.4 mph - N/A   Clear
1:53 PM 46.9 °F - 35.1 °F 63% 30.38 in 10.0 mi East 5.8 mph - N/A   Clear
2:53 PM 46.0 °F 42.5 °F 33.1 °F 61% 30.38 in 10.0 mi East 6.9 mph - N/A   Clear
3:53 PM 44.1 °F 42.5 °F 33.1 °F 65% 30.36 in 10.0 mi East 3.5 mph - N/A   Clear
4:53 PM 41.0 °F 39.0 °F 34.0 °F 76% 30.36 in 10.0 mi West 3.5 mph - N/A   Clear
5:53 PM 39.0 °F 36.8 °F 35.1 °F 86% 30.35 in 10.0 mi SW 3.5 mph - N/A   Scattered Clouds
6:53 PM 39.2 °F 35.9 °F 35.6 °F 87% 30.31 in 10.0 mi ESE 4.6 mph - N/A   Overcast
7:53 PM 37.9 °F 35.5 °F 34.0 °F 86% 30.32 in 10.0 mi SSW 3.5 mph - N/A   Overcast
8:53 PM 41.0 °F 37.1 °F 33.8 °F 76% 30.32 in 10.0 mi WNW 5.8 mph - N/A   Overcast
9:53 PM 41.0 °F 35.2 °F 33.8 °F 76% 30.33 in 10.0 mi SE 9.2 mph - N/A   Overcast
10:53 PM 41.0 °F 39.0 °F 34.0 °F 76% 30.31 in 10.0 mi South 3.5 mph - N/A   Overcast
11:53 PM 41.0 °F 36.4 °F 34.0 °F 76% 30.29 in 10.0 mi WSW 6.9 mph - N/A   Overcast